Location: Champs
(48.8539°N, 2.6040°E)
Time: 21:53:00
(UTC+00:00)

SPOT 1 Rocket Y - Pass Details

Date: 26 August 2022
Orbit: 784 x 832 km, 98.5° (Epoch: 06 October)

Event Time Altitude Azimuth Distance (km) Brightness Sun altitude
Exits shadow 20:07:12 11° 160° (SSE) 2,288 7.5 -13.2°
Maximum altitude 20:12:14 83° 74° (ENE) 826 5.6 -13.9°
Drops below altitude 10° 20:17:38 10° 347° (NNW) 2,430 8.8 -14.6°
Sets 20:20:00 0° 347° (NNW) 3,373 9.6 -15.0°
